Oxford, NC

12:15 AM EST on November 19, 2019 (GMT -0500)
Henderson-Oxford

Weather History for KHNZ - June, 2019

Change the Weather History Date:

Wednesday, June 12, 2019

  Actual Average (WUND) Record (WUND)
Temperature  
Mean Temperature 62 °F -  
Max Temperature 71 °F - - (-1)
Min Temperature 52 °F - - (-1)
Degree Days  
Heating Degree Days 4    
Growing Degree Days 12 (Base 50)    
Moisture  
Dew Point 55 °F    
Average Humidity 80    
Maximum Humidity 97    
Minimum Humidity 47    
Precipitation  
Precipitation 0.08 in - - ()
Sea Level Pressure  
Sea Level Pressure 30.07 in    
Wind  
Wind Speed 2 mph (ENE)    
Max Wind Speed 14 mph    
Max Gust Speed 18 mph    
Visibility 9 miles    
Events Rain    
Averages and records for this station are not official NWS values.
T = Trace of Precipitation, MM = Missing Value Source: NWS Daily Summary

Daily Weather History Graph

Daily Weather History Graph

Search for Another Location

Airport or City:

Astronomy

Jun. 12, 2019 Rise Set
Actual Time 5:55 AM EDT 8:32 PM EDT
Civil Twilight 5:25 AM EDT 9:02 PM EDT
Nautical Twilight 4:47 AM EDT 9:40 PM EDT
Astronomical Twilight 4:05 AM EDT 10:22 PM EDT
Moon 3:46 PM EDT (6/12) 2:59 AM EDT (6/12)
Length of Visible Light 15h 37m
Length of Day
14h 36m
Waxing Gibbous, 76% of the Moon is Illuminated
Jun 12
Waxing Gibbous
Jun 17
Full
Jun 25
Last Quarter
Jul 2
New
Jul 9
First Quarter

Hourly Weather History & Observations

Time (EDT) Temp. Dew Point Humidity Pressure Visibility Wind Dir Wind Speed Gust Speed Precip Events Conditions
12:00 AM 56.3 °F 50.7 °F 82% 30.13 in 10.0 mi Calm Calm - N/A   Clear
12:20 AM 54.9 °F 50.5 °F 85% 30.13 in 10.0 mi Calm Calm - N/A   Clear
12:40 AM 53.8 °F 49.5 °F 85% 30.12 in 10.0 mi Calm Calm - N/A   Clear
1:00 AM 53.2 °F 50.4 °F 90% 30.12 in 10.0 mi Calm Calm - N/A   Clear
1:20 AM 52.7 °F 50.4 °F 92% 30.12 in 10.0 mi Calm Calm - N/A   Clear
1:40 AM 53.6 °F 50.7 °F 90% 30.12 in 10.0 mi Calm Calm - N/A   Clear
2:00 AM 54.0 °F 51.3 °F 91% 30.11 in 10.0 mi Calm Calm - N/A   Clear
2:20 AM 53.6 °F 51.8 °F 94% 30.11 in 10.0 mi Calm Calm - N/A   Clear
2:40 AM 53.1 °F 50.9 °F 92% 30.11 in 10.0 mi Calm Calm - N/A   Clear
3:00 AM 53.2 °F 50.9 °F 92% 30.11 in 10.0 mi Calm Calm - N/A   Clear
3:20 AM 53.4 °F 51.4 °F 93% 30.11 in 10.0 mi Calm Calm - N/A   Clear
3:40 AM 53.4 °F 51.6 °F 94% 30.10 in 10.0 mi Calm Calm - N/A   Clear
4:00 AM 53.1 °F 51.6 °F 95% 30.10 in 10.0 mi Calm Calm - N/A   Clear
4:20 AM 52.7 °F 51.6 °F 96% 30.10 in 10.0 mi Calm Calm - N/A   Clear
4:40 AM 53.1 °F 52.0 °F 96% 30.10 in 10.0 mi Calm Calm - N/A   Clear
5:00 AM 53.1 °F 52.0 °F 96% 30.10 in 10.0 mi Calm Calm - N/A   Clear
5:20 AM 53.1 °F 52.0 °F 96% 30.10 in 10.0 mi Calm Calm - N/A   Clear
5:40 AM 53.6 °F 52.2 °F 95% 30.10 in 10.0 mi Calm Calm - N/A   Clear
6:00 AM 53.1 °F 52.0 °F 96% 30.11 in 10.0 mi Calm Calm - N/A   Clear
6:20 AM 53.1 °F 52.2 °F 97% 30.12 in 10.0 mi Calm Calm - N/A   Clear
6:40 AM 54.7 °F 52.7 °F 93% 30.12 in 10.0 mi Calm Calm - N/A   Clear
7:00 AM 55.4 °F 53.8 °F 94% 30.13 in 10.0 mi Calm Calm - N/A   Clear
7:20 AM 57.2 °F 54.3 °F 90% 30.13 in 10.0 mi North 3.5 mph - N/A   Clear
7:40 AM 58.3 °F 55.8 °F 91% 30.13 in 10.0 mi Calm Calm - N/A   Clear
8:00 AM 59.0 °F 55.6 °F 88% 30.13 in 10.0 mi Calm Calm - N/A   Clear
8:20 AM 60.4 °F 54.7 °F 81% 30.13 in 10.0 mi Calm Calm - N/A   Clear
8:40 AM 61.2 °F 55.4 °F 81% 30.14 in 10.0 mi Calm Calm - N/A   Clear
9:00 AM 62.8 °F 56.1 °F 79% 30.13 in 4.0 mi NE 4.6 mph - N/A   Haze
9:20 AM 64.8 °F 55.2 °F 71% 30.13 in 10.0 mi NE 4.6 mph - N/A   Clear
9:40 AM 66.6 °F 55.2 °F 67% 30.12 in 10.0 mi NNE 5.8 mph - N/A   Clear
10:00 AM 68.5 °F 53.6 °F 59% 30.12 in 10.0 mi ENE 8.1 mph - N/A   Unknown
10:40 AM 70.0 °F 52.5 °F 54% 30.12 in 10.0 mi Calm Calm - N/A   Unknown
11:00 AM 70.3 °F 51.3 °F 51% 30.12 in 10.0 mi East 10.4 mph - N/A   Unknown
11:20 AM 71.1 °F 52.2 °F 51% 30.12 in 10.0 mi East 11.5 mph - N/A   Clear
11:40 AM 70.9 °F 52.3 °F 52% 30.12 in 10.0 mi ENE 9.2 mph - N/A   Clear
12:00 PM 71.1 °F 52.9 °F 53% 30.12 in 10.0 mi East 10.4 mph - N/A   Clear
12:20 PM 71.8 °F 51.8 °F 49% 30.11 in 10.0 mi East 10.4 mph - N/A   Clear
12:40 PM 71.6 °F 50.5 °F 47% 30.10 in 10.0 mi East 13.8 mph 18.4 mph N/A   Clear
1:00 PM 71.4 °F 51.4 °F 49% 30.11 in 10.0 mi ENE 6.9 mph - N/A   Clear
1:20 PM 71.2 °F 52.3 °F 51% 30.10 in 10.0 mi East 6.9 mph - N/A   Clear
1:40 PM 71.2 °F 53.4 °F 53% 30.09 in 10.0 mi ENE 10.4 mph - N/A   Clear
2:00 PM 70.5 °F 52.9 °F 54% 30.09 in 10.0 mi East 9.2 mph - N/A   Clear
2:20 PM 69.8 °F 54.0 °F 57% 30.07 in 10.0 mi East 6.9 mph - N/A   Clear
2:40 PM 69.8 °F 55.0 °F 59% 30.07 in 10.0 mi East 5.8 mph - N/A   Clear
3:00 PM 68.2 °F 55.9 °F 65% 30.06 in 10.0 mi East 5.8 mph - N/A Rain Light Rain
3:20 PM 68.0 °F 57.4 °F 69% 30.06 in 10.0 mi ESE 3.5 mph - N/A Rain Light Rain
3:40 PM 67.1 °F 58.6 °F 74% 30.05 in 10.0 mi East 3.5 mph - N/A Rain Light Rain
4:00 PM 67.8 °F 57.0 °F 68% 30.04 in 10.0 mi ENE 5.8 mph - N/A   Scattered Clouds
4:20 PM 67.6 °F 57.4 °F 70% 30.04 in 10.0 mi ENE 5.8 mph - N/A   Scattered Clouds
4:40 PM 66.7 °F 57.0 °F 71% 30.04 in 10.0 mi Calm Calm - N/A   Scattered Clouds
5:00 PM 67.1 °F 57.4 °F 71% 30.03 in 10.0 mi NNE 3.5 mph - N/A Rain Light Rain
5:40 PM 65.8 °F 59.0 °F 79% 30.02 in 10.0 mi NNE 3.5 mph - N/A   Mostly Cloudy
6:00 PM 65.7 °F 58.3 °F 77% 30.00 in 10.0 mi North 4.6 mph - N/A   Overcast
6:20 PM 65.8 °F 58.5 °F 77% 30.00 in 10.0 mi North 3.5 mph - N/A   Overcast
6:40 PM 65.8 °F 58.3 °F 77% 29.99 in 10.0 mi North 3.5 mph - N/A   Mostly Cloudy
7:00 PM 65.7 °F 58.1 °F 77% 29.99 in 10.0 mi North 3.5 mph - N/A   Mostly Cloudy
7:20 PM 65.3 °F 58.5 °F 78% 29.99 in 10.0 mi NE 3.5 mph - N/A Rain Light Rain
7:40 PM 63.7 °F 60.3 °F 89% 29.99 in 5.0 mi East 4.6 mph - N/A   Drizzle
8:00 PM 61.9 °F 59.9 °F 93% 29.99 in 5.0 mi ENE 6.9 mph - N/A Rain Rain
8:20 PM 61.3 °F 59.9 °F 95% 29.99 in 4.0 mi NE 4.6 mph - N/A Rain Rain
8:40 PM 61.3 °F 60.3 °F 96% 29.97 in 5.0 mi NE 4.6 mph - 0.01 in Rain Rain
9:00 PM 61.7 °F 60.8 °F 97% 29.96 in 7.0 mi NE 5.8 mph - N/A   Drizzle
9:20 PM 61.7 °F 60.8 °F 97% 29.96 in 10.0 mi NE 4.6 mph - 0.01 in Rain Light Rain
9:40 PM 61.7 °F 60.8 °F 97% 29.96 in 4.0 mi ENE 5.8 mph - 0.03 in Rain Rain
10:00 PM 61.7 °F 60.8 °F 97% 29.95 in 7.0 mi ENE 9.2 mph - N/A   Light Drizzle
10:20 PM 61.7 °F 60.4 °F 96% 29.94 in 5.0 mi East 8.1 mph - 0.01 in   Overcast
10:40 PM 61.7 °F 60.6 °F 96% 29.94 in 5.0 mi ENE 5.8 mph - 0.02 in   Drizzle
11:00 PM 61.3 °F 60.4 °F 97% 29.93 in 5.0 mi ENE 8.1 mph - N/A   Light Drizzle
11:20 PM 61.3 °F 60.4 °F 97% 29.93 in 5.0 mi ENE 5.8 mph - N/A   Drizzle
11:40 PM 61.2 °F 60.3 °F 97% 29.92 in 5.0 mi NE 3.5 mph - 0.02 in Rain Light Rain